Mojave, CA

6:07 AM PST on February 10, 2016 (GMT -0800)
Mojave

Weather History for KMHV - August, 2014

Change the Weather History Date:

Friday, August 22, 2014

  Actual Average Record
Temperature  
Mean Temperature 81 °F -  
Max Temperature 91 °F 93 °F 102 °F (1967)
Min Temperature 71 °F 63 °F 55 °F (1968)
Cooling Degree Days 16    
Growing Degree Days 31 (Base 50)    
Moisture  
Dew Point 46 °F    
Average Humidity 30    
Maximum Humidity 44    
Minimum Humidity 16    
Precipitation  
Precipitation 0.00 in - - ()
Sea Level Pressure  
Sea Level Pressure 29.97 in    
Wind  
Wind Speed 13 mph (WSW)    
Max Wind Speed 25 mph    
Max Gust Speed 43 mph    
Visibility 10 miles    
Events      
Averages and records for this station are not official NWS values.
T = Trace of Precipitation, MM = Missing Value Source: NWS Daily Summary

Daily Weather History Graph

Daily Weather History Graph

Search for Another Location

Airport or City:

Trip Planner

Search our weather history database for the weather conditions in past years. The results will help you decide how hot, cold, wet, or windy it might be!

Date:

Astronomy

Aug. 22, 2014 Rise Set
Actual Time 6:17 AM PDT 7:32 PM PDT
Civil Twilight 5:51 AM PDT 7:58 PM PDT
Nautical Twilight 5:20 AM PDT 8:30 PM PDT
Astronomical Twilight 4:47 AM PDT 9:02 PM PDT
Moon 3:47 AM PDT (8/22) 5:41 PM PDT (8/22)
Length of Visible Light 14h 07m
Length of Day
13h 14m
Waning Crescent, 7% of the Moon is Illuminated
Aug 22
Waning Crescent
Aug 25
New
Sep 2
First Quarter
Sep 8
Full
Sep 15
Last Quarter

Hourly Weather History & Observations

Time (PDT) Temp. Dew Point Humidity Pressure Visibility Wind Dir Wind Speed Gust Speed Precip Events Conditions
12:15 AM 77.0 °F 48.2 °F 36% 30.01 in 10.0 mi SW 15.0 mph 20.7 mph N/A   Clear
12:35 AM 75.2 °F 48.2 °F 38% 30.01 in 10.0 mi SW 11.5 mph - N/A   Clear
12:55 AM 75.2 °F 48.2 °F 38% 30.01 in 10.0 mi WSW 12.7 mph 20.7 mph N/A   Clear
1:15 AM 75.2 °F 46.4 °F 36% 30.01 in 10.0 mi WSW 12.7 mph 19.6 mph N/A   Clear
1:35 AM 75.2 °F 48.2 °F 38% 30.00 in 10.0 mi WSW 11.5 mph - N/A   Clear
1:55 AM 75.2 °F 48.2 °F 38% 30.00 in 10.0 mi SW 11.5 mph - N/A   Clear
2:15 AM 73.4 °F 48.2 °F 41% 29.99 in 10.0 mi WSW 9.2 mph - N/A   Clear
2:35 AM 75.2 °F 48.2 °F 38% 29.99 in 10.0 mi West 11.5 mph - N/A   Clear
2:55 AM 75.2 °F 46.4 °F 36% 29.99 in 10.0 mi West 13.8 mph 17.3 mph N/A   Clear
3:15 AM 75.2 °F 46.4 °F 36% 29.99 in 10.0 mi West 10.4 mph 19.6 mph N/A   Clear
3:35 AM 75.2 °F 44.6 °F 34% 29.99 in 10.0 mi WNW 15.0 mph 24.2 mph N/A   Clear
3:55 AM 75.2 °F 46.4 °F 36% 29.99 in 10.0 mi West 11.5 mph - N/A   Clear
4:15 AM 73.4 °F 48.2 °F 41% 29.99 in 10.0 mi West 6.9 mph - N/A   Clear
4:35 AM 71.6 °F 48.2 °F 43% 29.99 in 10.0 mi West 6.9 mph - N/A   Clear
4:55 AM 75.2 °F 44.6 °F 34% 29.98 in 10.0 mi WNW 12.7 mph 19.6 mph N/A   Clear
5:15 AM 73.4 °F 48.2 °F 41% 29.99 in 10.0 mi WSW 9.2 mph - N/A   Clear
5:35 AM 73.4 °F 48.2 °F 41% 29.99 in 10.0 mi WSW 10.4 mph 17.3 mph N/A   Clear
5:55 AM 73.4 °F 46.4 °F 38% 29.99 in 10.0 mi WSW 10.4 mph - N/A   Clear
6:15 AM 73.4 °F 46.4 °F 38% 29.99 in 10.0 mi West 9.2 mph - N/A   Unknown
6:35 AM 73.4 °F 46.4 °F 38% 29.99 in 10.0 mi West 9.2 mph - N/A   Clear
6:55 AM 73.4 °F 46.4 °F 38% 30.00 in 10.0 mi West 8.1 mph - N/A   Clear
7:15 AM 75.2 °F 44.6 °F 34% 30.00 in 10.0 mi West 9.2 mph - N/A   Clear
7:35 AM 77.0 °F 46.4 °F 34% 30.00 in 10.0 mi West 8.1 mph - N/A   Clear
7:55 AM 78.8 °F 44.6 °F 30% 29.99 in 10.0 mi WNW 8.1 mph - N/A   Clear
8:15 AM 78.8 °F 44.6 °F 30% 29.99 in 10.0 mi NNE 4.6 mph - N/A   Clear
8:35 AM 80.6 °F 44.6 °F 28% 29.99 in 10.0 mi NW 3.5 mph - N/A   Clear
8:55 AM 82.4 °F 44.6 °F 26% 29.99 in 10.0 mi Calm Calm - N/A   Clear
9:15 AM 82.4 °F 44.6 °F 26% 29.99 in 10.0 mi Calm Calm - N/A   Clear
9:35 AM 82.4 °F 44.6 °F 26% 29.99 in 10.0 mi Calm Calm - N/A   Clear
9:55 AM 84.2 °F 44.6 °F 25% 29.99 in 10.0 mi Calm Calm - N/A   Clear
10:35 AM 86.0 °F 41.0 °F 20% 29.99 in 10.0 mi SW 8.1 mph - N/A   Clear
10:55 AM 86.0 °F 42.8 °F 22% 29.99 in 10.0 mi SSW 3.5 mph 23.0 mph N/A   Clear
11:15 AM 86.0 °F 44.6 °F 23% 29.98 in 10.0 mi SW 9.2 mph 17.3 mph N/A   Clear
11:35 AM 86.0 °F 44.6 °F 23% 29.98 in 10.0 mi SW 10.4 mph 19.6 mph N/A   Clear
11:55 AM 89.6 °F 44.6 °F 21% 29.98 in 10.0 mi SW 6.9 mph - N/A   Clear
12:15 PM 87.8 °F 44.6 °F 22% 29.97 in 10.0 mi SW 3.5 mph - N/A   Clear
12:35 PM 89.6 °F 46.4 °F 22% 29.96 in 10.0 mi SW 16.1 mph 23.0 mph N/A   Clear
12:55 PM 91.4 °F 46.4 °F 21% 29.96 in 10.0 mi West 12.7 mph 42.6 mph N/A   Clear
1:15 PM 91.4 °F 46.4 °F 21% 29.96 in 10.0 mi SSW 15.0 mph 31.1 mph N/A   Clear
1:35 PM 91.4 °F 39.2 °F 16% 29.94 in 10.0 mi West 21.9 mph 26.5 mph N/A   Clear
1:55 PM 91.4 °F 39.2 °F 16% 29.94 in 10.0 mi WNW 23.0 mph 28.8 mph N/A   Clear
2:15 PM 91.4 °F 39.2 °F 16% 29.94 in 10.0 mi WNW 19.6 mph 26.5 mph N/A   Clear
2:35 PM 91.4 °F 41.0 °F 17% 29.93 in 10.0 mi West 23.0 mph 31.1 mph N/A   Clear
2:55 PM 91.4 °F 41.0 °F 17% 29.93 in 10.0 mi West 25.3 mph 29.9 mph N/A   Clear
3:15 PM 91.4 °F 41.0 °F 17% 29.92 in 10.0 mi WNW 23.0 mph 29.9 mph N/A   Clear
3:35 PM 91.4 °F 39.2 °F 16% 29.93 in 10.0 mi West 19.6 mph 26.5 mph N/A   Clear
3:55 PM 91.4 °F 41.0 °F 17% 29.93 in 10.0 mi West 21.9 mph 28.8 mph N/A   Clear
4:15 PM 91.4 °F 42.8 °F 18% 29.93 in 10.0 mi West 24.2 mph - N/A   Clear
4:55 PM 89.6 °F 42.8 °F 20% 29.93 in 10.0 mi West 20.7 mph 27.6 mph N/A   Clear
5:15 PM 89.6 °F 44.6 °F 21% 29.92 in 10.0 mi West 23.0 mph 31.1 mph N/A   Clear
5:35 PM 89.6 °F 44.6 °F 21% 29.92 in 10.0 mi West 25.3 mph - N/A   Clear
5:55 PM 87.8 °F 44.6 °F 22% 29.92 in 10.0 mi West 19.6 mph 25.3 mph N/A   Clear
6:15 PM 86.0 °F 44.6 °F 23% 29.93 in 10.0 mi WSW 18.4 mph 26.5 mph N/A   Clear
6:55 PM 84.2 °F 46.4 °F 27% 29.92 in 10.0 mi West 19.6 mph 26.5 mph N/A   Clear
7:15 PM 84.2 °F 46.4 °F 27% 29.93 in 10.0 mi WSW 17.3 mph 24.2 mph N/A   Clear
7:35 PM 82.4 °F 48.2 °F 30% 29.94 in 10.0 mi WSW 16.1 mph 20.7 mph N/A   Clear
7:55 PM 78.8 °F 51.8 °F 39% 29.94 in 10.0 mi SSW 17.3 mph 21.9 mph N/A   Clear
8:15 PM 77.0 °F 51.8 °F 41% 29.94 in 10.0 mi SSW 16.1 mph 19.6 mph N/A   Clear
8:35 PM 77.0 °F 51.8 °F 41% 29.94 in 10.0 mi SSW 15.0 mph 23.0 mph N/A   Clear
8:55 PM 77.0 °F 51.8 °F 41% 29.95 in 10.0 mi SSW 15.0 mph - N/A   Clear
9:15 PM 75.2 °F 51.8 °F 44% 29.95 in 10.0 mi SW 15.0 mph - N/A   Clear
9:35 PM 75.2 °F 50.0 °F 41% 29.96 in 10.0 mi SW 11.5 mph - N/A   Clear
10:15 PM 73.4 °F 50.0 °F 44% 29.96 in 10.0 mi SSW 13.8 mph - N/A   Clear
10:35 PM 75.2 °F 46.4 °F 36% 29.97 in 10.0 mi West 19.6 mph - N/A   Clear
10:55 PM 75.2 °F 46.4 °F 36% 29.97 in 10.0 mi West 16.1 mph 19.6 mph N/A   Clear
11:15 PM 75.2 °F 46.4 °F 36% 29.97 in 10.0 mi WSW 19.6 mph - N/A   Clear
11:35 PM 75.2 °F 46.4 °F 36% 29.97 in 10.0 mi West 18.4 mph 26.5 mph N/A   Clear
11:55 PM 73.4 °F 46.4 °F 38% 29.97 in 10.0 mi West 20.7 mph - N/A   Clear